Location: Fort Wayne
(41.1310°N, 85.1290°W)
Time: 00:40:06
(UTC-04:00)

Gbstr 26 Del rocket - Visible Passes

Search period start: 22 April 2018 00:00
Search period end: 02 May 2018 00:00
Orbit: 494 x 1264 km, 51.8° (Epoch: 21 April)

Date Brightness Start Highest point End Pass type
(mag) Time Alt. Az. Time Alt. Az. Time Alt. Az.
22 Apr 6.6 00:34:08 10° ENE 00:34:08 10° ENE 00:34:16 10° ENE visible
22 Apr 4.7 02:16:39 60° ENE 02:16:39 60° ENE 02:22:25 10° NE visible
22 Apr 5.1 03:59:09 26° WNW 04:03:01 44° NNW 04:09:36 10° NE visible
22 Apr 5.5 05:45:11 10° WNW 05:51:46 34° N 05:57:23 10° ENE visible
23 Apr 6.4 00:29:10 13° ENE 00:29:10 13° ENE 00:30:05 10° ENE visible
23 Apr 4.6 02:11:40 67° NE 02:11:40 67° NE 02:17:56 10° NE visible
23 Apr 5.3 03:54:10 22° WNW 03:58:40 41° NNW 04:05:10 10° NE visible
23 Apr 5.5 05:40:50 10° WNW 05:47:29 35° N 05:53:07 10° ENE visible
24 Apr 6.2 00:24:03 17° ENE 00:24:03 17° ENE 00:25:47 10° ENE visible
24 Apr 4.5 02:06:33 72° N 02:06:33 72° N 02:13:27 10° NE visible
24 Apr 5.4 03:49:02 18° WNW 03:54:20 39° NNW 04:00:46 10° NE visible
24 Apr 5.5 05:36:27 10° WNW 05:43:12 36° N 05:48:53 10° ENE visible
25 Apr 5.9 00:18:48 23° ENE 00:18:48 23° ENE 00:21:26 10° ENE visible
25 Apr 4.6 02:01:15 67° NW 02:01:30 67° NNW 02:08:58 10° NE visible
25 Apr 5.5 03:43:44 13° WNW 03:50:01 37° N 03:56:24 10° ENE visible
25 Apr 5.4 05:32:02 10° NW 05:38:53 39° NNE 05:44:38 10° E visible
26 Apr 5.5 00:13:16 31° ENE 00:13:16 31° ENE 00:17:02 10° ENE visible
26 Apr 4.8 01:55:42 54° WNW 01:57:04 60° NNW 02:04:29 10° NE visible
26 Apr 5.6 03:38:32 10° WNW 03:45:43 36° N 03:52:04 10° ENE visible
26 Apr 5.3 05:27:36 10° NW 05:34:34 42° NNE 05:40:23 10° E visible
27 Apr 4.9 00:07:15 46° E 00:07:15 46° E 00:12:36 10° ENE visible
27 Apr 5.0 01:49:39 37° W 01:52:39 55° NNW 02:00:01 10° NE visible
27 Apr 5.6 03:34:15 10° WNW 03:41:25 36° N 03:47:44 10° ENE visible
27 Apr 5.2 05:23:08 10° NW 05:30:14 45° NNE 05:36:08 10° E visible
27 Apr 6.0 22:17:45 14° E 22:17:45 14° E 22:19:18 10° ENE visible
27 Apr 4.3 23:59:59 73° SSE 00:00:16 73° SE 00:08:09 10° ENE visible
28 Apr 5.1 01:42:11 18° W 01:48:16 50° NNW 01:55:33 10° NE visible
28 Apr 5.6 03:29:57 10° WNW 03:37:07 36° N 03:43:26 10° ENE visible
28 Apr 5.0 05:18:39 10° NW 05:25:53 50° NNE 05:31:51 10° E visible
28 Apr 5.3 22:02:41 10° S 22:08:54 26° SE 22:15:15 10° ENE visible
28 Apr 4.4 23:47:38 10° SW 23:55:44 84° SE 00:03:40 10° NE visible
29 Apr 5.3 01:36:07 10° W 01:43:53 46° NNW 01:51:06 10° NE visible
29 Apr 5.6 03:25:38 10° WNW 03:32:50 36° N 03:39:10 10° ENE visible
29 Apr 4.8 05:14:09 10° NW 05:21:30 57° NNE 05:27:32 10° ESE visible
29 Apr 5.1 21:57:30 10° S 22:04:11 31° SE 22:11:02 10° ENE visible
29 Apr 4.4 23:43:06 10° SW 23:51:12 86° NW 23:59:11 10° NE visible
30 Apr 5.4 01:31:51 10° W 01:39:32 43° NNW 01:46:41 10° NE visible
30 Apr 5.6 03:21:17 10° WNW 03:28:32 37° N 03:34:54 10° ENE visible
30 Apr 4.6 05:09:39 10° NW 05:17:05 64° NNE 05:23:11 10° ESE visible
30 Apr 4.9 21:52:28 10° SSW 21:59:30 37° SE 22:06:46 10° ENE visible
30 Apr 4.6 23:38:37 10° WSW 23:46:42 77° NW 23:54:41 10° NE visible
01 May 5.5 01:27:36 10° W 01:35:12 41° NNW 01:42:16 10° NE visible
01 May 5.6 03:16:55 10° WNW 03:24:14 39° N 03:30:39 10° ENE visible
01 May 4.4 05:05:08 10° NW 05:12:39 73° NNE 05:18:49 10° ESE visible
01 May 4.8 21:47:32 10° SSW 21:54:50 44° SE 22:02:24 10° ENE visible
01 May 4.8 23:34:12 10° WSW 23:42:15 69° NNW 23:50:11 10° NE visible
